Kithira Airport, Greece

7:10 AM EET on December 04, 2016 (GMT +0200)
Kalamata Air Base

Weather History for LGKL - January, 2013

Change the Weather History Date:

Saturday, January 5, 2013

  Actual Average Record
Temperature  
Mean Temperature 50 °F -  
Max Temperature 62 °F 59 °F 70 °F (2016)
Min Temperature 37 °F 40 °F 32 °F (2015)
Degree Days  
Heating Degree Days 16    
Moisture  
Dew Point 38 °F    
Average Humidity 67    
Maximum Humidity 87    
Minimum Humidity 34    
Precipitation  
Precipitation 0.00 in - - ()
Sea Level Pressure  
Sea Level Pressure 29.94 in    
Wind  
Wind Speed 2 mph ()    
Max Wind Speed 13 mph    
Max Gust Speed -    
Visibility 6.2 miles    
Events      
Averages and records for this station are not official NWS values.
T = Trace of Precipitation, MM = Missing Value Source: Averaged Metar Reports

Daily Weather History Graph

Daily Weather History Graph

Search for Another Location

Airport or City:

Trip Planner

Search our weather history database for the weather conditions in past years. The results will help you decide how hot, cold, wet, or windy it might be!

Date:

Astronomy

Jan. 05, 2013 Rise Set
Actual Time 7:45 AM EET 5:29 PM EET
Civil Twilight 7:16 AM EET 5:57 PM EET
Nautical Twilight 6:44 AM EET 6:30 PM EET
Astronomical Twilight 6:13 AM EET 7:01 PM EET
Moon 12:37 AM EET (1/5) 12:03 PM EET (1/5)
Length of Visible Light 10h 40m
Length of Day
9h 43m
Waning Gibbous, 47% of the Moon is Illuminated
Jan 5
Waning Gibbous
Jan 11
New
Jan 19
First Quarter
Jan 27
Full
Feb 3
Last Quarter

Hourly Weather History & Observations

Time (EET) Temp. Windchill Dew Point Humidity Pressure Visibility Wind Dir Wind Speed Gust Speed Precip Events Conditions
1:50 AM 41.0 °F 38.0 °F 37.4 °F 87% 30.06 in 6.2 mi NW 4.6 mph - N/A   Scattered Clouds
4:50 AM 39.2 °F - 35.6 °F 87% 30.01 in 6.2 mi Calm Calm - N/A   Scattered Clouds
5:20 AM 37.4 °F - 33.8 °F 87% 30.01 in - Calm Calm - N/A   Clear
5:50 AM 39.2 °F - 35.6 °F 87% 30.01 in - Calm Calm - N/A   Clear
6:20 AM 39.2 °F - 35.6 °F 87% 30.01 in - Calm Calm - N/A   Clear
6:50 AM 39.2 °F - 35.6 °F 87% 30.01 in - Calm Calm - N/A   Clear
7:20 AM 39.2 °F - 35.6 °F 87% 30.01 in - Calm Calm - N/A   Clear
7:50 AM 37.4 °F - 33.8 °F 87% 30.01 in 6.2 mi Calm Calm - N/A   Partly Cloudy
8:20 AM 39.2 °F - 35.6 °F 87% 30.01 in 6.2 mi Calm Calm - N/A   Partly Cloudy
8:50 AM 41.0 °F - 35.6 °F 81% 30.01 in 6.2 mi Calm Calm - N/A   Partly Cloudy
9:20 AM 44.6 °F 41.4 °F 37.4 °F 76% 30.01 in 6.2 mi NNW 5.8 mph - N/A   Partly Cloudy
9:50 AM 50.0 °F - 39.2 °F 66% 30.01 in 6.2 mi Calm Calm - N/A   Partly Cloudy
10:20 AM 51.8 °F - 41.0 °F 67% 29.98 in 6.2 mi Calm Calm - N/A   Partly Cloudy
10:50 AM 53.6 °F - 41.0 °F 62% 29.98 in 6.2 mi Calm Calm - N/A   Partly Cloudy
11:20 AM 57.2 °F - 41.0 °F 55% 29.98 in 6.2 mi Calm Calm - N/A   Partly Cloudy
11:50 AM 59.0 °F - 39.2 °F 48% 29.95 in 6.2 mi North 4.6 mph - N/A   Partly Cloudy
12:20 PM 60.8 °F - 39.2 °F 45% 29.95 in 6.2 mi North 5.8 mph - N/A   Partly Cloudy
12:50 PM 60.8 °F - 39.2 °F 45% 29.95 in 6.2 mi North 5.8 mph - N/A   Partly Cloudy
1:20 PM 62.6 °F - 35.6 °F 37% 29.92 in 6.2 mi North 5.8 mph - N/A   Scattered Clouds
1:50 PM 62.6 °F - 33.8 °F 34% 29.89 in 6.2 mi North 5.8 mph - N/A   Scattered Clouds
2:20 PM 60.8 °F - 33.8 °F 36% 29.89 in 6.2 mi Calm Calm - N/A   Scattered Clouds
2:50 PM 60.8 °F - 35.6 °F 39% 29.89 in 6.2 mi NNW 6.9 mph - N/A   Mostly Cloudy
3:20 PM 59.0 °F - 39.2 °F 48% 29.89 in 6.2 mi NNE 12.7 mph - N/A   Mostly Cloudy
3:50 PM 57.2 °F - 41.0 °F 55% 29.89 in 6.2 mi North 6.9 mph - N/A   Mostly Cloudy
4:20 PM 57.2 °F - 41.0 °F 55% 29.89 in 6.2 mi NNE 5.8 mph - N/A   Mostly Cloudy
4:50 PM 53.6 °F - 41.0 °F 62% 29.89 in 6.2 mi NNE 4.6 mph - N/A   Scattered Clouds
5:20 PM 53.6 °F - 39.2 °F 58% 29.89 in 6.2 mi Calm Calm - N/A   Scattered Clouds
5:50 PM 53.6 °F - 39.2 °F 58% 29.86 in 6.2 mi North 5.8 mph - N/A   Partly Cloudy
6:20 PM 48.2 °F - 39.2 °F 71% 29.86 in 6.2 mi Calm Calm - N/A   Partly Cloudy
6:50 PM 46.4 °F - 39.2 °F 76% 29.86 in 6.2 mi Calm Calm - N/A   Partly Cloudy
7:20 PM 46.4 °F - 39.2 °F 76% 29.86 in 6.2 mi Calm Calm - N/A   Partly Cloudy
7:50 PM 44.6 °F - 39.2 °F 81% 29.86 in 6.2 mi Calm Calm - N/A   Partly Cloudy
10:50 PM 39.2 °F - 35.6 °F 87% 29.83 in 6.2 mi Calm Calm - N/A   Partly Cloudy